Flag for Germany Weather past 2 weeks in Emmendingen, Baden-Württemberg, Germany

Now
66 °F

Scattered clouds.


Feels Like: 66 °F
Forecast: 44 / 73 °F
Wind: 8 mph from North

Location: Lahr - CAN-AFB

Current Time: Aug 21, 2014 at 2:20:10 PM

Latest Report: Aug 21, 2014 at 1:50 PM


Visibility: N/A

Pressure: 30.07 "Hg

Humidity: 56%

Dew point: 50 °F

Location of EmmendingenLocation

Historic Weather in Emmendingen — Graph

°F

Emmendingen temperature yesterday

Maximum temperature yesterday: 64 °F (at 11:50 AM)
Minimum temperature yesterday: 54 °F (at 7:50 AM)
Average temperature yesterday: 61 °F

Past Weeks' High & Low Weather Summary

 TemperatureHumidityPressure
High82 °F (Aug 8, 5:50 PM)94% (Aug 10, 8:50 AM)30.15 "Hg (Aug 10, 8:50 AM)
Low50 °F (Aug 21, 7:20 AM)40% (Aug 11, 6:20 PM)29.65 "Hg (Aug 13, 3:20 PM)
Average67 °F65%29.94 "Hg
* Reported Aug 6 1:20 PM — Aug 21 1:20 PM, Emmendingen, Weather by CustomWeather, © 2014

Note: Actual official high and low records may vary slightly from our data, if they occured in-between our weather recording intervals... More about our weather records

Advertising

Emmendingen weather history for previous 24 hours

 ConditionsComfort  
Time TempWeatherWind HumidityBarometerVisibility
1:20 PM
Aug 21
64 °FScattered clouds.3 mph60%30.07 "HgN/A
12:50 PM66 °FScattered clouds.1 mph49%30.07 "HgN/A
12:20 PM66 °FPassing clouds.3 mph60%30.07 "HgN/A
11:50 AM64 °FScattered clouds.2 mph56%30.07 "HgN/A
11:20 AM63 °FScattered clouds.3 mph59%30.09 "HgN/A
10:50 AM63 °FPassing clouds.3 mph64%30.09 "HgN/A
10:20 AM61 °FPassing clouds.3 mph68%30.09 "HgN/A
9:50 AM59 °FPassing clouds.2 mph77%30.09 "HgN/A
9:20 AM57 °FPassing clouds.2 mph77%30.09 "HgN/A
8:50 AM55 °FPassing clouds.2 mph82%30.09 "HgN/A
8:20 AM54 °FSunny.1 mph82%30.09 "Hg10 mi
7:50 AM52 °FSunny.2 mph88%30.07 "Hg10 mi
7:20 AM50 °FClear.2 mph88%30.07 "Hg10 mi
7:50 PM
Aug 20
61 °FPartly sunny.3 mph59%30.01 "HgN/A
7:20 PM61 °FPartly sunny.2 mph59%30.01 "HgN/A
6:50 PM61 °FPartly sunny.2 mph59%30.01 "HgN/A
6:20 PM63 °FPartly sunny.6 mph56%30.01 "HgN/A
5:50 PM63 °FBroken clouds.5 mph56%30.01 "HgN/A
5:20 PM61 °FPartly sunny.5 mph59%30.04 "HgN/A
4:50 PM61 °FPartly sunny.5 mph59%30.04 "HgN/A
4:20 PM61 °FPartly sunny.7 mph55%30.04 "HgN/A
3:50 PM63 °FPartly sunny.7 mph56%30.04 "HgN/A
3:20 PM63 °FPartly sunny.6 mph52%30.04 "HgN/A
2:50 PM63 °FPartly sunny.7 mph52%30.04 "HgN/A
2:20 PM64 °FPartly sunny.8 mph56%30.04 "HgN/A
Weather by CustomWeather, © 2014

See weather overviewHow to use our weather pages